SPACEBEE-66 (48628 NORAD) Tracking and Keplerian Element Data

This shows tracking and keplerian element data for the satellite.

Feedback or suggestion? Click here.




ElementValue
Catalog48628
NameSPACEBEE-66
Epoch Orbit4006
Epoch Day287.39230307
Epoch Year2021
RAAN341.752
Inclination97.2448
Eccentricity0.0016273
Argument of Perigee43.9371
Mean Anonmoly316.3152
Mean Motion15.1555901
Decay Rate5.363E-05
L11 48628U 21006EU 21287.39230307 .00005363 00000-0 28514-3 0 9994
L22 48628 97.2448 341.7520 0016273 43.9371 316.3152 15.15559010 40065

Live tracking and technical data element details for SPACEBEE-66 (NORAD 48628). SPACEBEE-66 can be tracked NOW for your location showing map with azimuth and elevation plus other details from your city location.

Track the satellite on the map from your city or location and see movement details for azimuth, elevation, latitude, longitude, range, height, and movement on the map or in text.







IsCatalogInMostPopularTable: catalog: 48628, numindb: 39
Update: records affected: 1



GetName: 48628 SPACEBEE-66

Hit Count: updated at: Tue, 19 Oct 2021 08:41:07 GMT